Stations météo

réclame
Mon MeteoGroup
Auch, France (7622): Température de l'air & dewpoint: 17.07.2018 07:00:00 - 23.07.2018 07:00:00 (CEST)Auch, France (7622): Température de l'air 5cm: 17.07.2018 07:00:00 - 23.07.2018 07:00:00 (CEST)Auch, France (7622): Température de l'air -20cm & Température de l'air -100cm: 17.07.2018 07:00:00 - 23.07.2018 07:00:00 (CEST)Auch, France (7622): Vitesse du vent & gusts: 17.07.2018 07:00:00 - 23.07.2018 07:00:00 (CEST)Auch, France (7622): Direction du vent: 17.07.2018 07:00:00 - 23.07.2018 07:00:00 (CEST)Auch, France (7622): reduced air pressure: 17.07.2018 07:00:00 - 23.07.2018 07:00:00 (CEST)Auch, France (7622): visibility: 17.07.2018 07:00:00 - 23.07.2018 07:00:00 (CEST)Auch, France (7622): Ensoleillement: 17.07.2018 07:00:00 - 23.07.2018 07:00:00 (CEST)Auch, France (7622): Quantités de précipitations: 17.07.2018 07:00:00 - 23.07.2018 07:00:00 (CEST)
Date & Time tt [°C] td [°C] tt 5cm [°C] tt -20cm [°C] tt -100cm [°C] ff [km/h] ff [knt] fx [km/h] fx [knt] dd ppp [hPa] vv [km] sd [min] rr [mm]
23.07.2018 07:00:00 14,6 14,1 12,5 23,3 21,4 5 3 9 5 SSW 1018,7 20 0 0,2
23.07.2018 06:00:00 14,9 14,4 12,8 23,5 21,4 4 2 8 4 SSW 1018,4 20 0 0,0
23.07.2018 05:00:00 15,3 14,8 13,0 23,6 21,5 5 3 9 5 SSW 1018,4 20 0 0,0
23.07.2018 04:00:00 15,4 14,9 12,3 23,8 21,4 4 2 5 3 SSW 1018,4 20 0 0,0
23.07.2018 03:00:00 15,6 15,0 13,0 24,0 21,5 2 1 6 4 SSW 1018,7 20 0 0,0
23.07.2018 02:00:00 16,3 15,5 13,3 24,1 21,5 0 0 3 2 N 1019,1 20 0 0,0
23.07.2018 01:00:00 17,1 16,0 14,3 24,3 21,5 0 0 4 2 N 1019,2 20 0 0,0
23.07.2018 00:00:00 18,2 16,4 15,3 24,4 21,5 0 0 4 2 N 1018,8 20 0 0,0
22.07.2018 23:00:00 18,7 16,3 16,2 24,5 21,5 2 1 4 2 S 1018,6 20 0 0,0
22.07.2018 22:00:00 20,0 16,0 17,0 24,5 21,5 3 2 6 4 SSW 1017,7 3,8 0 0,0
22.07.2018 21:00:00 23,1 15,4 20,7 24,4 21,5 5 3 13 7 W 1017,0 20 21 0,0
22.07.2018 20:00:00 24,1 14,8 23,5 24,3 21,5 7 4 18 10 WNW 1016,4 20 24 0,0
22.07.2018 19:00:00 25,5 14,6 25,4 24,2 21,5 9 5 20 11 W 1015,9 20 25 0,0
22.07.2018 18:00:00 25,3 13,2 25,7 23,9 21,5 7 4 21 11 NW 1015,9 20 17 0,0
22.07.2018 17:00:00 26,3 15,0 26,5 23,6 21,5 10 6 23 12 NW 1016,0 20 46 0,0
22.07.2018 16:00:00 25,8 15,2 26,9 23,3 21,5 12 6 29 15 N 1016,3 20 49 0,0
22.07.2018 15:00:00 25,1 14,2 26,5 23,1 21,5 8 4 19 11 N 1016,5 20 31 0,0
22.07.2018 14:00:00 24,5 14,0 25,8 22,8 21,5 5 3 20 11 NW 1016,9 20 39 0,0
22.07.2018 13:00:00 23,3 13,7 25,1 22,6 21,5 9 5 18 10 N 1017,3 20 48 0,0
22.07.2018 12:00:00 23,1 14,9 28,7 22,6 21,5 4 2 18 10 NNE 1017,4 20 60 0,0
22.07.2018 11:00:00 21,6 14,7 23,9 22,6 21,5 6 3 12 6 WNW 1017,6 20 20 0,0
22.07.2018 10:00:00 20,6 15,4 22,0 22,6 21,5 0 0 5 3 N 1017,8 20 45 0,0
22.07.2018 09:00:00 18,7 15,8 17,0 22,8 21,5 2 1 5 3 SSE 1017,8 20 60 0,0
22.07.2018 08:00:00 15,2 15,0 12,0 23,0 21,5 3 2 5 3 S 1017,6 20 18 0,0
22.07.2018 07:00:00 13,5 13,2 11,3 23,2 21,5 3 1 6 4 SW 1017,7 17 0 0,0
22.07.2018 06:00:00 13,7 13,2 11,4 23,3 21,5 0 0 5 3 N 1017,3 10 0 0,0
22.07.2018 05:00:00 14,3 13,8 12,1 23,5 21,5 4 2 6 4 S 1017,4 20 0 0,0
22.07.2018 04:00:00 14,5 13,9 12,0 23,7 21,5 3 1 9 5 SSW 1017,4 20 0 0,0
22.07.2018 03:00:00 14,5 13,5 12,5 23,9 21,5 5 3 7 4 S 1017,5 20 0 0,0
22.07.2018 02:00:00 15,3 14,3 13,5 24,0 21,5 6 3 9 5 S 1017,9 20 0 0,0
22.07.2018 01:00:00 15,8 14,2 13,8 24,2 21,5 5 3 11 6 S 1017,9 20 0 0,0
22.07.2018 00:00:00 16,1 14,1 13,7 24,3 21,5 7 4 9 5 SSW 1018,0 20 0 0,0
21.07.2018 23:00:00 17,3 13,6 15,0 24,4 21,5 5 3 10 5 S 1017,6 20 0 0,0
21.07.2018 22:00:00 19,2 13,8 16,1 24,4 21,5 4 2 8 4 WSW 1016,7 3,1 0 0,0
21.07.2018 21:00:00 21,5 13,9 20,0 24,3 21,5 5 3 18 10 WNW 1016,1 20 14 0,0
21.07.2018 20:00:00 23,4 13,6 23,0 24,3 21,5 13 7 21 11 WNW 1015,5 20 26 0,0
21.07.2018 19:00:00 23,2 14,2 23,9 24,1 21,5 8 5 19 10 W 1015,6 20 11 0,0
21.07.2018 18:00:00 24,2 12,8 24,8 24,0 21,5 11 6 22 12 W 1015,6 20 43 0,0
21.07.2018 17:00:00 23,8 13,9 25,0 23,8 21,5 8 5 21 12 WNW 1015,7 20 36 0,0
21.07.2018 16:00:00 22,8 14,6 23,8 23,7 21,5 6 3 15 8 NW 1016,1 20 11 0,0
21.07.2018 15:00:00 22,3 14,4 21,5 23,6 21,5 11 6 18 10 NW 1016,3 20 4 0,0
21.07.2018 14:00:00 22,3 13,4 25,5 23,5 21,5 6 4 14 8 NW 1016,4 20 6 0,0
21.07.2018 13:00:00 22,1 15,2 23,9 23,4 21,5 6 4 15 8 W 1016,6 20 15 0,0
21.07.2018 12:00:00 20,8 14,9 22,7 23,4 21,5 6 4 15 8 W 1016,9 20 0 0,0
21.07.2018 11:00:00 20,7 15,5 21,7 23,4 21,5 8 4 18 10 SW 1016,9 20 26 0,0
21.07.2018 10:00:00 19,3 16,3 19,7 23,5 21,5 10 5 18 10 SW 1017,3 20 0 0,0
21.07.2018 09:00:00 18,4 15,8 18,4 23,6 21,5 8 4 15 8 W 1017,2 20 0 0,0
21.07.2018 08:00:00 17,7 15,9 17,0 23,7 21,5 5 3 12 6 SSW 1017,0 20 0 0,0
21.07.2018 07:00:00 17,0 15,7 16,5 23,9 21,5 4 2 10 5 SSW 1017,1 20 0 0,0
21.07.2018 06:00:00 16,7 15,2 16,5 24,0 21,5 4 2 7 4 SSW 1017,1 20 0 0,0
21.07.2018 05:00:00 16,8 15,1 16,5 24,1 21,5 0 0 15 8 N 1017,3 20 0 0,0
21.07.2018 04:00:00 17,2 14,8 16,6 24,3 21,5 10 5 17 9 W 1017,8 18 0 0,0
21.07.2018 03:00:00 17,2 15,0 15,7 24,5 21,5 6 3 11 6 WSW 1017,9 20 0 0,0
21.07.2018 02:00:00 16,7 15,1 15,1 24,6 21,4 4 2 10 5 SW 1017,9 20 0 0,0
21.07.2018 01:00:00 17,5 14,9 16,3 24,8 21,5 5 3 18 10 W 1017,8 20 0 0,0
21.07.2018 00:00:00 18,3 15,0 17,4 24,9 21,5 9 5 22 12 WSW 1017,7 20 0 0,0
20.07.2018 23:00:00 18,8 15,3 18,3 25,1 21,5 10 6 21 12 W 1017,3 20 0 0,0
20.07.2018 22:00:00 19,1 16,3 18,5 25,1 21,5 9 5 27 15 W 1016,6 20 0 0,0
20.07.2018 21:00:00 20,2 19,0 19,4 25,2 21,4 7 4 17 9 WSW 1015,7 18 0 0,8
20.07.2018 20:00:00 20,1 18,9 19,3 25,2 21,5 8 4 17 9 SW 1015,3 12 0 1,6
20.07.2018 19:00:00 20,7 18,3 19,3 25,2 21,4 8 4 29 16 S 1015,0 19 0 0,4
20.07.2018 18:00:00 22,9 17,1 22,9 25,1 21,4 6 3 22 12 W 1014,7 20 0 0,0
20.07.2018 17:00:00 24,5 16,5 25,9 25,0 21,4 15 8 25 13 NW 1014,9 20 4 0,0
20.07.2018 16:00:00 25,0 16,4 26,8 24,9 21,4 18 10 30 16 NW 1015,1 20 13 0,0
20.07.2018 15:00:00 24,5 16,7 25,5 24,8 21,5 12 6 21 11 NW 1015,4 20 0 0,0
20.07.2018 14:00:00 24,4 17,1 25,9 24,6 21,4 11 6 25 14 WNW 1015,7 20 10 0,0
20.07.2018 13:00:00 24,4 18,1 28,1 24,4 21,4 13 7 24 13 NW 1015,7 20 52 0,0
20.07.2018 12:00:00 23,5 17,7 27,2 24,5 21,5 9 5 19 11 WNW 1016,1 20 58 0,0
20.07.2018 11:00:00 22,0 17,6 22,0 24,4 21,4 10 5 19 10 W 1016,3 20 55 0,0
20.07.2018 10:00:00 20,3 17,5 21,0 24,6 21,4 5 3 15 8 W 1016,7 20 0 0,0
20.07.2018 09:00:00 19,7 17,7 19,6 24,7 21,4 5 3 10 5 WNW 1016,7 20 0 0,0
20.07.2018 08:00:00 19,1 17,4 18,9 24,8 21,4 3 1 10 5 WNW 1016,5 20 0 0,0
20.07.2018 07:00:00 19,3 18,0 18,9 25,0 21,4 4 2 17 9 W 1016,1 20 0 0,0
20.07.2018 06:00:00 19,3 18,5 18,2 25,3 21,6 6 3 14 8 W 1016,0 20 0 0,0
20.07.2018 05:00:00 19,0 18,0 18,0 25,4 21,4 4 2 11 6 S 1015,8 20 0 0,0
20.07.2018 04:00:00 18,7 17,4 17,7 25,5 21,4 9 5 19 11 S 1016,5 20 0 4,7
20.07.2018 03:00:00 20,1 16,5 18,0 25,7 21,4 8 4 29 16 WSW 1016,3 19 0 2,2
20.07.2018 02:00:00 22,0 19,5 21,2 25,8 21,5 9 5 22 12 W 1016,1 20 0 0,0
20.07.2018 01:00:00 22,3 19,3 21,3 25,9 21,4 6 3 14 8 WSW 1016,0 20 0 0,0
20.07.2018 00:00:00 23,2 19,8 21,9 26,0 21,4 4 2 18 10 WSW 1015,6 20 0 0,0
19.07.2018 23:00:00 24,3 20,0 23,3 26,1 21,4 14 8 33 18 WNW 1015,1 20 0 0,0
19.07.2018 22:00:00 26,3 19,2 23,6 26,0 21,4 9 5 22 12 WNW 1014,3 20 10 0,0
19.07.2018 21:00:00 28,5 19,4 28,3 25,9 21,4 4 2 10 6 NNW 1013,4 20 30 0,0
19.07.2018 20:00:00 30,0 17,8 31,1 25,7 21,4 8 5 15 8 NNW 1013,2 20 54 0,0
19.07.2018 19:00:00 31,5 17,0 35,5 25,4 21,4 4 2 11 6 NW 1012,8 20 60 0,0
19.07.2018 18:00:00 31,0 16,2 35,7 25,1 21,4 5 3 16 9 NE 1013,0 20 60 0,0
19.07.2018 17:00:00 31,0 17,0 35,8 24,7 21,4 6 4 18 10 SE 1013,2 20 60 0,0
19.07.2018 16:00:00 30,6 18,0 35,8 24,3 21,4 6 3 20 11 E 1013,6 20 60 0,0
19.07.2018 15:00:00 30,0 17,5 35,0 23,9 21,4 8 4 22 12 ENE 1014,1 20 60 0,0
19.07.2018 14:00:00 28,6 17,2 33,9 23,6 21,4 9 5 18 10 NE 1014,6 20 60 0,0
19.07.2018 13:00:00 28,6 18,4 33,0 23,4 21,4 4 2 13 7 SE 1015,3 19 60 0,0
19.07.2018 12:00:00 25,7 19,3 29,9 23,3 21,4 4 2 13 7 W 1015,8 20 60 0,0
19.07.2018 11:00:00 23,4 19,1 23,2 23,3 21,5 7 4 14 8 SSW 1016,3 20 60 0,0
19.07.2018 10:00:00 21,1 18,8 22,0 23,4 21,4 12 7 16 9 S 1016,9 20 60 0,0
19.07.2018 09:00:00 19,8 17,9 19,2 23,5 21,4 8 5 16 8 S 1016,7 20 60 0,0
19.07.2018 08:00:00 17,9 17,6 15,7 23,7 21,4 6 3 11 6 S 1016,7 18 43 0,0
19.07.2018 07:00:00 16,3 16,1 13,7 23,9 21,4 7 4 10 5 S 1016,5 17 0 0,0
19.07.2018 06:00:00 15,8 15,5 13,6 24,1 21,4 4 2 7 4 SSW 1016,1 12 0 0,0
19.07.2018 05:00:00 16,5 16,2 13,9 24,3 21,5 0 0 6 3 N 1016,0 12 0 0,0
19.07.2018 04:00:00 16,5 16,0 14,2 24,4 21,4 2 1 4 2 SSW 1015,9 10 0 0,0
19.07.2018 03:00:00 17,0 16,4 14,5 24,6 21,4 3 1 5 3 S 1016,0 11 0 0,0
19.07.2018 02:00:00 18,0 17,2 15,4 24,7 21,4 3 2 12 6 N 1016,2 19 0 0,0
19.07.2018 01:00:00 18,4 17,4 15,7 24,8 21,4 0 0 3 1 N 1016,2 20 0 0,0
19.07.2018 00:00:00 19,5 17,5 16,8 25,0 21,4 0 0 4 2 N 1016,2 13 0 0,0
18.07.2018 23:00:00 21,9 18,1 20,1 25,0 21,4 4 2 23 12 ESE 1016,2 20 0 0,0
18.07.2018 22:00:00 22,7 17,6 21,4 25,0 21,4 11 6 20 11 S 1016,6 20 10 0,0
18.07.2018 21:00:00 24,3 17,3 24,0 25,0 21,5 6 3 10 5 SSE 1016,0 20 52 0,0
18.07.2018 20:00:00 25,0 17,5 25,4 25,0 21,5 6 3 13 7 ENE 1015,0 20 11 0,0
18.07.2018 19:00:00 25,2 17,9 21,6 25,0 21,4 3 1 24 13 S 1013,6 19 25 0,2
18.07.2018 18:00:00 23,0 16,8 19,3 24,9 21,4 16 9 57 31 N 1012,1 20 0 1,6
18.07.2018 17:00:00 22,4 15,7 21,3 24,6 21,5 11 6 32 17 WNW 1015,1 16 0 0,2
18.07.2018 16:00:00 29,5 16,7 28,8 24,3 21,4 7 4 24 13 ENE 1011,9 20 34 0,0
18.07.2018 15:00:00 30,4 17,1 32,2 24,0 21,4 12 7 26 14 E 1012,4 20 40 0,0
18.07.2018 14:00:00 29,7 15,8 30,8 23,8 21,5 11 6 29 16 E 1012,8 19 49 0,0
18.07.2018 13:00:00 28,4 15,3 32,5 23,6 21,4 13 7 27 14 ENE 1013,4 20 60 0,0
18.07.2018 12:00:00 27,4 16,7 30,0 23,6 21,4 15 8 29 16 E 1014,3 20 60 0,0
18.07.2018 11:00:00 25,8 17,2 25,4 23,6 21,4 12 7 23 13 ENE 1014,8 20 60 0,0
18.07.2018 10:00:00 23,7 17,4 22,4 23,6 21,4 11 6 20 11 ESE 1015,4 20 49 0,0
18.07.2018 09:00:00 20,3 17,9 20,7 23,8 21,4 0 0 5 3 N 1016,1 20 60 0,0
18.07.2018 08:00:00 17,3 17,1 14,0 24,0 21,4 0 0 6 3 N 1016,3 19 44 0,0
18.07.2018 07:00:00 15,1 14,8 12,8 24,2 21,5 0 0 4 2 N 1016,7 16 0 0,2
18.07.2018 06:00:00 15,2 14,7 13,0 24,4 21,5 0 0 4 2 N 1016,7 13 0 0,0
18.07.2018 05:00:00 15,6 15,1 13,5 24,6 21,4 0 0 3 1 N 1016,3 13 0 0,0
18.07.2018 04:00:00 16,1 15,6 13,7 24,8 21,5 0 0 3 1 N 1016,7 14 0 0,0
18.07.2018 03:00:00 16,4 15,9 14,2 25,0 21,5 3 1 6 3 SSW 1016,9 18 0 0,0
18.07.2018 02:00:00 16,8 16,2 14,5 25,2 21,5 2 1 5 3 NNW 1017,2 18 0 0,0
18.07.2018 01:00:00 17,7 16,9 14,9 25,3 21,4 0 0 3 1 N 1017,7 20 0 0,0
18.07.2018 00:00:00 18,3 17,0 15,7 25,4 21,4 0 0 2 1 N 1017,9 20 0 0,0
17.07.2018 23:00:00 19,5 16,9 16,7 25,5 21,5 0 0 3 2 N 1018,1 16 0 0,0
17.07.2018 22:00:00 21,8 17,6 18,1 25,5 21,4 0 0 4 2 N 1017,5 3,8 0 0,0
17.07.2018 21:00:00 25,6 17,5 26,6 25,4 21,5 3 2 8 5 SSE 1017,2 20 41 0,0
17.07.2018 20:00:00 26,6 15,6 30,4 25,2 21,5 5 3 13 7 NE 1017,3 20 60 0,0
17.07.2018 19:00:00 26,8 15,5 26,7 25,0 21,5 3 2 11 6 N 1017,3 20 21 0,0
17.07.2018 18:00:00 26,8 15,2 28,5 24,7 21,4 7 4 14 8 E 1018,1 20 48 0,0
17.07.2018 17:00:00 26,9 15,9 27,2 24,4 21,5 8 4 16 9 N 1018,3 20 44 0,0
17.07.2018 16:00:00 26,1 15,8 28,7 24,0 21,4 6 3 16 9 E 1018,9 20 32 0,0
17.07.2018 15:00:00 26,3 16,0 27,7 23,8 21,5 9 5 16 9 SSE 1019,1 20 42 0,0
17.07.2018 14:00:00 24,6 15,0 27,8 23,4 21,4 5 3 16 9 N 1019,8 20 26 0,0
17.07.2018 13:00:00 25,6 15,9 31,1 23,2 21,4 4 2 14 8 ESE 1020,2 15 60 0,0
17.07.2018 12:00:00 24,3 16,0 28,5 23,1 21,4 7 4 16 8 NNE 1020,6 20 58 0,0
17.07.2018 11:00:00 23,6 16,9 24,0 23,1 21,5 6 3 13 7 NNE 1020,7 20 51 0,0
17.07.2018 10:00:00 22,3 16,8 23,2 23,1 21,4 3 2 9 5 SE 1021,1 20 60 0,0
17.07.2018 09:00:00 20,3 17,3 19,9 23,2 21,5 2 1 7 4 S 1021,2 20 60 0,0
17.07.2018 08:00:00 17,2 17,0 13,5 23,4 21,5 0 0 3 2 N 1021,2 17 42 0,0
17.07.2018 07:00:00 15,2 14,7 13,1 23,5 21,4 2 1 5 3 SSW 1021,3 2,2 0 0,0

tt = Température de l'air
td = dewpoint
tt 5cm = Température de l'air 5cm
tt -20cm = Température de l'air -20cm
tt -100cm = Température de l'air -100cm
ff = Vitesse du vent
fx = gusts
dd = Direction du vent
ppp = reduced air pressure
vv = visibility
sd = Ensoleillement
rr = Quantités de précipitations

stations d'obs. à proximité